CAPE
1092 1109 994 1024 885 1162 1384 1195 798 477 365 357 223 134 557 973 1126 1144 1361 863 1008 1390 1395 1135 782 631 497 230 54 8 9 7 9 10 11 7 1 1 2 2 3 5 4
1253 1062 932 771 605 1116 1112 1184 923 439 293 43 38 42 320 519 621 1047 1124 1128 878 861 996 855 689 492 124 3 0 3 10 3 2 1 0 1 0 0 0 0 1 2 2
1446 1162 986 408 482 685 1015 1062 615 345 128 15 11 16 41 120 264 510 975 1112 636 377 359 320 200 33 40 0 6 8 0 0 0 0 0 0 0 0 0 0 0 0 0
1121 1145 991 897 637 263 634 989 759 444 205 165 277 213 75 21 55 174 605 585 448 213 79 30 12 1 7 11 6 0 0 0 0 0 0 0 0 0 0 0 0 0 0
1440 1335 1165 1044 775 435 275 791 532 400 322 495 479 372 87 33 53 20 82 20 78 57 17 41 0 14 7 4 4 0 0 0 0 0 0 0 0 0 0 0 0 0 0
1610 1013 1278 1168 922 737 346 471 501 367 408 652 698 598 235 98 79 17 19 17 2 60 49 2 4 0 0 1 4 0 0 1 0 0 0 0 0 0 0 0 0 0 0
1412 1072 1037 1063 1054 1137 785 442 529 516 714 893 870 601 274 254 97 69 134 29 7 22 57 11 0 1 5 0 0 0 0 0 0 0 0 0 0 0 0 0 0 0 0
892 879 931 1024 1090 1138 1011 731 303 427 678 897 744 550 323 319 397 140 128 6 4 38 49 5 7 14 7 3 5 0 1 0 1 0 0 0 0 0 0 0 0 2 0
914 1122 1028 1097 1241 1231 1210 1138 929 677 578 645 578 484 256 211 307 151 90 19 26 3 26 38 28 11 4 4 1 3 0 0 0 0 0 0 0 0 0 0 0 0 0
698 823 974 1093 1064 1141 1229 1186 1008 858 990 958 536 442 348 365 319 258 81 105 12 14 22 16 19 4 3 2 2 2 4 0 0 0 0 2 0 0 0 0 0 0 0
957 996 1031 1492 1706 1462 1267 1433 1329 1074 851 783 613 561 518 430 327 687 40 9 10 4 16 9 4 1 4 5 1 0 1 1 0 0 0 0 0 0 0 0 0 0 0
1184 1271 1184 829 768 985 1022 792 663 848 696 655 650 793 513 397 388 217 12 33 18 4 10 4 0 5 7 1 0 0 4 4 4 2 0 0 0 0 0 0 0 0 0
1023 918 1009 899 590 164 465 559 515 364 274 356 203 301 133 114 256 86 35 21 1 8 25 9 2 1 1 0 0 1 0 1 0 3 2 0 0 0 0 0 0 0 0
658 516 644 262 386 226 124 2 168 164 130 56 76 105 10 30 41 51 34 18 13 4 2 19 15 1 1 0 1 3 4 0 0 0 0 0 0 0 0 0 0 0 0
276 96 4 33 26 11 2 9 0 45 5 0 11 20 11 24 9 23 5 2 12 4 6 0 10 0 0 1 0 0 0 0 1 1 0 0 0 0 0 0 0 0 0
0 0 0 0 0 0 1 2 2 0 0 0 0 16 24 9 22 2 9 12 14 0 0 3 3 1 0 0 1 0 0 0 0 0 0 0 0 0 0 0 0 0 0
0 0 0 0 1 0 1 0 0 0 0 0 2 4 0 1 3 2 9 0 0 5 29 35 1 0 0 0 12 2 0 0 0 2 0 0 0 0 0 0 0 0 0
0 0 0 0 0 0 0 2 1 3 5 3 0 2 6 2 8 2 5 0 0 3 12 24 13 0 0 1 1 8 2 2 2 2 4 0 0 0 0 0 0 0 0
0 0 0 0 0 0 1 0 0 2 6 5 4 12 12 5 15 10 3 3 10 8 19 27 27 13 1 1 1 3 3 0 0 1 2 0 0 0 0 0 0 0 0
0 0 0 0 0 0 0 0 0 0 2 9 7 13 13 1 1 3 3 16 11 2 33 45 19 2 0 0 0 2 3 2 0 0 0 0 0 0 0 0 0 0 0
0 0 0 0 0 0 0 0 0 2 3 7 22 2 8 0 0 3 6 4 16 15 18 19 8 0 0 0 0 0 0 0 0 0 0 0 0 0 0 0 0 0 0
0 0 0 0 0 0 0 5 32 1 8 77 2 0 0 9 7 3 7 21 20 9 0 0 0 0 0 0 0 0 0 0 0 0 0 0 0 0 0 0 0 0 0
0 0 0 0 0 0 0 12 20 29 33 68 43 0 8 3 8 4 13 11 6 1 0 0 0 0 0 0 0 0 0 0 0 0 0 0 0 0 0 0 0 0 0
0 2 0 0 0 0 3 1 41 55 100 94 3 1 5 2 0 0 0 5 5 0 0 0 0 0 0 0 0 0 0 0 0 0 0 0 0 0 0 0 0 0 0
2 5 0 0 0 0 0 4 125 104 76 83 29 8 0 0 0 1 8 5 0 0 0 0 0 0 0 0 0 0 0 0 0 0 0 0 0 0 0 0 0 0 0
0 1 1 0 0 0 0 0 55 79 96 97 18 0 0 0 1 0 0 0 0 0 0 0 0 0 0 0 0 0 0 0 0 0 0 0 0 0 0 0 0 0 0
CIN
-156 -149 -173 -145 -134 -79 -43 -72 -97 -134 -161 -160 -195 -210 -110 -44 -24 -10 -1 -32 -22 -15 -2 -0 -0 -0 -4 -14 -35 -3 -5 -12 -12 -12 -9 -8 -0 -0 -0 -0 -0 -6 -0
-117 -134 -143 -153 -193 -73 -65 -28 -82 -163 -194 -294 -232 -253 -141 -83 -60 -7 -0 -3 -10 -11 -3 -0 -0 -0 -12 -15 -0 -16 -8 -5 -0 -0 -0 -0 -0 -0 -0 -0 -0 -0 -0
-89 -102 -102 -216 -198 -136 -62 -49 -107 -154 -214 -253 -214 -207 -198 -150 -102 -30 -0 -0 -0 -17 -12 -13 -18 -57 -24 -0 -12 -0 -0 -0 -0 -0 -0 -0 -0 -0 -0 -0 -0 -0 -0
-129 -111 -123 -127 -168 -244 -124 -50 -59 -115 -162 -138 -84 -62 -86 -132 -127 -71 -6 -1 -3 -17 -25 -39 -38 -5 -11 -7 -0 -0 -0 -0 -0 -0 -0 -0 -0 -0 -0 -0 -0 -0 -0
-70 -79 -90 -97 -107 -143 -177 -49 -72 -86 -86 -34 -21 -21 -59 -76 -68 -118 -62 -75 -46 -21 -33 -25 -4 -1 -3 -0 -0 -0 -0 -0 -0 -0 -0 -0 -0 -0 -0 -0 -0 -0 -0
-50 -91 -56 -61 -62 -65 -95 -95 -68 -73 -56 -5 -6 -2 -6 -32 -39 -69 -54 -33 -94 -21 -30 -5 -48 -0 -0 -1 -0 -0 -0 -28 -0 -0 -0 -0 -0 -0 -0 -0 -0 -0 -0
-73 -78 -74 -52 -39 -21 -19 -78 -67 -53 -21 -3 -0 -3 -9 -4 -10 -24 -2 -52 -1 -5 -3 -42 -0 -0 -0 -0 -0 -0 -0 -0 -0 -0 -0 -0 -0 -0 -0 -0 -0 -0 -0
-130 -109 -84 -50 -28 -13 -9 -20 -68 -24 -1 -0 -0 -0 -1 -0 -1 -7 -25 -0 -3 -59 -0 -5 -9 -0 -0 -0 -0 -0 -1 -0 -0 -0 -0 -0 -0 -0 -0 -0 -0 -9 -0
-124 -79 -64 -11 -8 -4 -2 -0 -0 -2 -6 -0 -0 -0 -1 -3 -0 -1 -4 -18 -61 -1 -6 -0 -0 -0 -0 -0 -0 -1 -0 -0 -0 -0 -0 -0 -0 -0 -0 -0 -0 -0 -0
-26 -55 -60 -41 -30 -15 -6 -7 -6 -5 -0 -0 -0 -0 -0 -0 -0 -0 -1 -1 -1 -0 -2 -0 -0 -0 -0 -0 -0 -0 -0 -0 -0 -0 -0 -0 -0 -0 -0 -0 -0 -0 -0
-49 -38 -61 -21 -3 -5 -4 -0 -0 -0 -0 -0 -0 -0 -0 -2 -6 -0 -52 -5 -68 -0 -0 -1 -0 -0 -0 -0 -0 -0 -0 -0 -0 -0 -0 -0 -0 -0 -0 -0 -0 -0 -0
-26 -21 -15 -39 -30 -17 -9 -15 -12 -0 -3 -5 -6 -1 -1 -0 -0 -2 -77 -27 -71 -2 -0 -0 -0 -0 -0 -0 -0 -0 -0 -0 -0 -0 -0 -0 -0 -0 -0 -0 -0 -0 -0
-32 -23 -12 -14 -39 -148 -41 -30 -35 -59 -59 -26 -31 -22 -42 -39 -4 -23 -43 -45 -48 -2 -0 -3 -0 -0 -0 -0 -0 -0 -0 -0 -0 -2 -2 -0 -0 -0 -0 -0 -0 -0 -0
-32 -38 -27 -129 -77 -111 -222 -45 -173 -118 -139 -216 -128 -31 -25 -3 -14 -0 -0 -0 -1 -14 -0 -0 -1 -0 -0 -0 -0 -0 -0 -0 -0 -0 -0 -0 -0 -0 -0 -0 -0 -0 -0
-106 -173 -244 -236 -239 -298 -154 -308 -42 -247 -277 -13 -238 -190 -103 -70 -84 -1 -2 -0 -0 -0 -51 -0 -1 -0 -0 -0 -0 -0 -0 -0 -4 -0 -0 -0 -0 -0 -0 -0 -0 -0 -0
-0 -0 -0 -0 -0 -0 -0 -1 -23 -141 -0 -0 -0 -0 -72 -0 -7 -0 -1 -7 -0 -0 -0 -0 -0 -0 -0 -0 -0 -1 -0 -0 -0 -0 -0 -0 -0 -0 -0 -0 -0 -0 -0
-0 -0 -0 -0 -0 -0 -0 -0 -0 -0 -0 -0 -0 -0 -0 -2 -0 -0 -5 -0 -0 -0 -0 -0 -8 -0 -0 -0 -0 -0 -0 -0 -0 -0 -0 -0 -0 -0 -0 -0 -0 -0 -0
-0 -0 -0 -0 -0 -0 -0 -1 -0 -0 -0 -0 -0 -0 -0 -9 -0 -0 -0 -0 -10 -1 -1 -1 -9 -31 -0 -0 -0 -0 -0 -0 -0 -0 -0 -0 -0 -0 -0 -0 -0 -0 -0
-0 -0 -0 -0 -0 -0 -0 -0 -0 -0 -1 -0 -0 -0 -0 -13 -21 -12 -1 -0 -0 -4 -3 -9 -5 -41 -20 -0 -0 -0 -0 -0 -0 -0 -0 -0 -0 -0 -0 -0 -0 -0 -0
-0 -0 -0 -0 -0 -0 -0 -0 -0 -0 -0 -0 -0 -0 -0 -0 -0 -0 -0 -0 -3 -12 -27 -1 -16 -66 -0 -0 -0 -0 -0 -0 -0 -0 -0 -0 -0 -0 -0 -0 -0 -0 -0
-0 -0 -0 -0 -0 -0 -0 -0 -0 -1 -0 -0 -35 -4 -3 -0 -0 -0 -0 -1 -4 -7 -34 -31 -91 -0 -0 -0 -0 -0 -0 -0 -0 -0 -0 -0 -0 -0 -0 -0 -0 -0 -0
-0 -0 -0 -0 -0 -0 -0 -50 -40 -0 -24 -10 -0 -0 -0 -0 -0 -14 -20 -3 -2 -23 -0 -0 -0 -0 -0 -0 -0 -0 -0 -0 -0 -0 -0 -0 -0 -0 -0 -0 -0 -0 -0
-0 -0 -0 -0 -0 -0 -0 -32 -35 -41 -49 -29 -29 -0 -0 -0 -0 -3 -5 -10 -9 -46 -0 -0 -0 -0 -0 -0 -0 -0 -0 -0 -0 -0 -0 -0 -0 -0 -0 -0 -0 -0 -0
-0 -0 -0 -0 -0 -0 -0 -0 -14 -6 -2 -0 -75 -25 -0 -0 -0 -0 -3 -21 -17 -0 -0 -0 -0 -0 -0 -0 -0 -0 -0 -0 -0 -0 -0 -0 -0 -0 -0 -0 -0 -0 -0
-0 -0 -0 -0 -0 -0 -0 -4 -0 -0 -3 -8 -57 -18 -0 -0 -0 -0 -3 -12 -0 -0 -0 -0 -0 -0 -0 -0 -0 -0 -0 -0 -0 -0 -0 -0 -0 -0 -0 -0 -0 -0 -0
-0 -0 -0 -0 -0 -0 -0 -0 -2 -0 -0 -2 -54 -0 -16 -0 -0 -0 -0 -0 -0 -0 -0 -0 -0 -0 -0 -0 -0 -0 -0 -0 -0 -0 -0 -0 -0 -0 -0 -0 -0 -0 -0
Wind_Speed
15 21 21 22 17 16 16 19 15 11 10 11 16 17 15 16 19 21 26 29 32 35 37 34 32 42 49 51 nan nan nan nan nan nan nan nan nan nan nan nan nan nan nan
14 14 15 15 17 17 16 14 17 14 16 nan nan nan 22 22 22 25 27 30 28 34 36 38 42 48 51 nan nan nan nan nan nan nan nan nan nan nan nan nan nan nan nan
12 12 10 13 16 16 17 19 18 17 18 nan nan nan nan 27 27 27 28 33 35 40 44 52 54 nan nan nan nan nan nan nan nan nan nan nan nan nan nan nan nan nan nan
16 16 15 15 19 18 19 20 20 20 21 25 28 27 nan nan nan 34 33 35 38 39 nan nan nan nan nan nan nan nan nan nan nan nan nan nan nan nan nan nan nan nan nan
13 13 15 16 20 19 19 21 22 21 24 25 26 28 nan nan nan nan nan nan nan nan nan nan nan nan nan nan nan nan nan nan nan nan nan nan nan nan nan nan nan nan nan
13 13 13 17 18 17 18 21 22 24 24 26 29 33 31 nan nan nan nan nan nan nan nan nan nan nan nan nan nan nan nan nan nan nan nan nan nan nan nan nan nan nan nan
14 14 14 17 19 17 18 24 25 31 31 37 38 42 39 31 nan nan 39 nan nan nan nan nan nan nan nan nan nan nan nan nan nan nan nan nan nan nan nan nan nan nan nan
15 14 16 21 25 23 24 32 35 36 35 40 39 41 37 29 37 44 40 nan nan nan nan nan nan nan nan nan nan nan nan nan nan nan nan nan nan nan nan nan nan nan nan
21 20 24 28 29 29 33 32 34 34 35 36 37 43 46 46 49 50 nan nan nan nan nan nan nan nan nan nan nan nan nan nan nan nan nan nan nan nan nan nan nan nan nan
31 31 29 29 30 30 30 33 34 35 40 40 35 38 43 50 53 52 nan 53 nan nan nan nan nan nan nan nan nan nan nan nan nan nan nan nan nan nan nan nan nan nan nan
41 42 38 37 38 34 27 30 32 33 36 41 43 46 47 53 55 52 nan nan nan nan nan nan nan nan nan nan nan nan nan nan nan nan nan nan nan nan nan nan nan nan nan
41 43 44 42 37 31 29 30 31 34 37 40 44 47 49 52 54 57 nan nan nan nan nan nan nan nan nan nan nan nan nan nan nan nan nan nan nan nan nan nan nan nan nan
43 44 42 40 39 34 34 33 34 39 43 44 47 49 49 51 55 nan nan nan nan nan nan nan nan nan nan nan nan nan nan nan nan nan nan nan nan nan nan nan nan nan nan
43 45 47 42 39 36 36 nan 39 38 45 nan nan 55 nan nan nan nan nan nan nan nan nan nan nan nan nan nan nan nan nan nan nan nan nan nan nan nan nan nan nan nan nan
51 nan nan nan nan nan nan nan nan nan nan nan nan nan nan nan nan nan nan nan nan nan nan nan nan nan nan nan nan nan nan nan nan nan nan nan nan nan nan nan nan nan nan
nan nan nan nan nan nan nan nan nan nan nan nan nan nan nan nan nan nan nan nan nan nan nan nan nan nan nan nan nan nan nan nan nan nan nan nan nan nan nan nan nan nan nan
nan nan nan nan nan nan nan nan nan nan nan nan nan nan nan nan nan nan nan nan nan nan nan nan nan nan nan nan nan nan nan nan nan nan nan nan nan nan nan nan nan nan nan
nan nan nan nan nan nan nan nan nan nan nan nan nan nan nan nan nan nan nan nan nan nan nan nan nan nan nan nan nan nan nan nan nan nan nan nan nan nan nan nan nan nan nan
nan nan nan nan nan nan nan nan nan nan nan nan nan nan nan nan nan nan nan nan nan nan nan nan nan nan nan nan nan nan nan nan nan nan nan nan nan nan nan nan nan nan nan
nan nan nan nan nan nan nan nan nan nan nan nan nan nan nan nan nan nan nan nan nan nan nan nan nan nan nan nan nan nan nan nan nan nan nan nan nan nan nan nan nan nan nan
nan nan nan nan nan nan nan nan nan nan nan nan nan nan nan nan nan nan nan nan nan nan nan nan nan nan nan nan nan nan nan nan nan nan nan nan nan nan nan nan nan nan nan
nan nan nan nan nan nan nan nan nan nan nan nan nan nan nan nan nan nan nan nan nan nan nan nan nan nan nan nan nan nan nan nan nan nan nan nan nan nan nan nan nan nan nan
nan nan nan nan nan nan nan nan nan nan nan nan nan nan nan nan nan nan nan nan nan nan nan nan nan nan nan nan nan nan nan nan nan nan nan nan nan nan nan nan nan nan nan
nan nan nan nan nan nan nan nan nan nan 69 nan nan nan nan nan nan nan nan nan nan nan nan nan nan nan nan nan nan nan nan nan nan nan nan nan nan nan nan nan nan nan nan
nan nan nan nan nan nan nan nan 82 79 nan nan nan nan nan nan nan nan nan nan nan nan nan nan nan nan nan nan nan nan nan nan nan nan nan nan nan nan nan nan nan nan nan
nan nan nan nan nan nan nan nan nan nan nan nan nan nan nan nan nan nan nan nan nan nan nan nan nan nan nan nan nan nan nan nan nan nan nan nan nan nan nan nan nan nan nan
Wind_Direction
319 309 308 311 298 308 324 316 310 318 324 314 309 309 318 311 312 311 306 304 304 304 308 306 298 295 289 286 nan nan nan nan nan nan nan nan nan nan nan nan nan nan nan
323 321 323 314 311 302 320 318 316 316 319 nan nan nan 321 304 301 307 314 301 299 297 300 301 294 290 286 nan nan nan nan nan nan nan nan nan nan nan nan nan nan nan nan
310 321 313 310 309 309 324 320 320 320 314 nan nan nan nan 310 296 308 306 308 304 297 299 302 297 nan nan nan nan nan nan nan nan nan nan nan nan nan nan nan nan nan nan
322 325 318 318 311 313 320 320 322 317 311 309 308 311 nan nan nan 304 310 304 305 301 nan nan nan nan nan nan nan nan nan nan nan nan nan nan nan nan nan nan nan nan nan
316 320 317 314 316 316 317 316 315 317 317 306 310 308 nan nan nan nan nan nan nan nan nan nan nan nan nan nan nan nan nan nan nan nan nan nan nan nan nan nan nan nan nan
302 323 313 313 315 314 309 308 316 317 309 308 301 297 298 nan nan nan nan nan nan nan nan nan nan nan nan nan nan nan nan nan nan nan nan nan nan nan nan nan nan nan nan
301 317 306 309 313 318 316 317 314 318 305 307 306 300 283 299 nan nan 301 nan nan nan nan nan nan nan nan nan nan nan nan nan nan nan nan nan nan nan nan nan nan nan nan
309 307 309 306 312 303 312 309 308 298 298 312 314 310 305 310 301 296 297 nan nan nan nan nan nan nan nan nan nan nan nan nan nan nan nan nan nan nan nan nan nan nan nan
302 302 305 301 301 300 301 305 303 306 303 311 310 308 311 306 301 297 nan nan nan nan nan nan nan nan nan nan nan nan nan nan nan nan nan nan nan nan nan nan nan nan nan
287 287 290 292 293 294 295 299 301 304 302 315 319 313 302 298 299 298 nan 299 nan nan nan nan nan nan nan nan nan nan nan nan nan nan nan nan nan nan nan nan nan nan nan
285 287 293 297 298 292 292 298 301 304 316 312 310 303 302 305 299 296 nan nan nan nan nan nan nan nan nan nan nan nan nan nan nan nan nan nan nan nan nan nan nan nan nan
285 289 290 289 287 286 286 281 283 300 311 313 314 311 308 315 309 308 nan nan nan nan nan nan nan nan nan nan nan nan nan nan nan nan nan nan nan nan nan nan nan nan nan
288 290 285 283 284 279 269 270 283 292 303 308 306 309 305 307 303 nan nan nan nan nan nan nan nan nan nan nan nan nan nan nan nan nan nan nan nan nan nan nan nan nan nan
282 282 284 283 278 274 274 nan 290 287 291 nan nan 313 nan nan nan nan nan nan nan nan nan nan nan nan nan nan nan nan nan nan nan nan nan nan nan nan nan nan nan nan nan
277 nan nan nan nan nan nan nan nan nan nan nan nan nan nan nan nan nan nan nan nan nan nan nan nan nan nan nan nan nan nan nan nan nan nan nan nan nan nan nan nan nan nan
nan nan nan nan nan nan nan nan nan nan nan nan nan nan nan nan nan nan nan nan nan nan nan nan nan nan nan nan nan nan nan nan nan nan nan nan nan nan nan nan nan nan nan
nan nan nan nan nan nan nan nan nan nan nan nan nan nan nan nan nan nan nan nan nan nan nan nan nan nan nan nan nan nan nan nan nan nan nan nan nan nan nan nan nan nan nan
nan nan nan nan nan nan nan nan nan nan nan nan nan nan nan nan nan nan nan nan nan nan nan nan nan nan nan nan nan nan nan nan nan nan nan nan nan nan nan nan nan nan nan
nan nan nan nan nan nan nan nan nan nan nan nan nan nan nan nan nan nan nan nan nan nan nan nan nan nan nan nan nan nan nan nan nan nan nan nan nan nan nan nan nan nan nan
nan nan nan nan nan nan nan nan nan nan nan nan nan nan nan nan nan nan nan nan nan nan nan nan nan nan nan nan nan nan nan nan nan nan nan nan nan nan nan nan nan nan nan
nan nan nan nan nan nan nan nan nan nan nan nan nan nan nan nan nan nan nan nan nan nan nan nan nan nan nan nan nan nan nan nan nan nan nan nan nan nan nan nan nan nan nan
nan nan nan nan nan nan nan nan nan nan nan nan nan nan nan nan nan nan nan nan nan nan nan nan nan nan nan nan nan nan nan nan nan nan nan nan nan nan nan nan nan nan nan
nan nan nan nan nan nan nan nan nan nan nan nan nan nan nan nan nan nan nan nan nan nan nan nan nan nan nan nan nan nan nan nan nan nan nan nan nan nan nan nan nan nan nan
nan nan nan nan nan nan nan nan nan nan 295 nan nan nan nan nan nan nan nan nan nan nan nan nan nan nan nan nan nan nan nan nan nan nan nan nan nan nan nan nan nan nan nan
nan nan nan nan nan nan nan nan 300 294 nan nan nan nan nan nan nan nan nan nan nan nan nan nan nan nan nan nan nan nan nan nan nan nan nan nan nan nan nan nan nan nan nan
nan nan nan nan nan nan nan nan nan nan nan nan nan nan nan nan nan nan nan nan nan nan nan nan nan nan nan nan nan nan nan nan nan nan nan nan nan nan nan nan nan nan nan